sat.trackr.live / text

‹ back to catalog

STARLINK-5196

NORAD 55319 · 2023-010BC

PAYLOAD ACTIVE UNKNOWN

§ Identity

Operator
Country
US
Launch date
2023-01-19
Launch site
AFWTR
Launch vehicle
Mass (kg)
RCS (m²)

Purposes: comms

External: N2YO · Heavens-Above · Gunter

§ Orbital elements

Epoch: 2026-05-25T03:10:03.262080Z

Period
96.11 min
Inclination
69.9991°
Eccentricity
0.0003767
Mean motion
14.98330205 rev/d
Perigee alt
569.4 km
Apogee alt
574.7 km
Semi-major
6,950.2 km
B*
3.1094e-5
RAAN
171.6761°
Arg perigee
266.1028°
Mean anomaly
93.9701°
Rev number
18,609

§ Raw data

STARLINK-51961 55319U 23010BC  26145.13198220  .00000278  00000+0  31094-4 0  99902 55319  69.9991 171.6761 0003767 266.1028  93.9701 14.98330205186093

JSON: /api/v1/satellites/55319 · /tle

For live sub-satellite position, see the globe view (requires WebGL).

§ Visibility from observer

Set your observer location to see the next 7 days of passes ≥ 10°. The values pass through the URL so the page stays shareable.

No JS? Fill the form by hand. The geolocation button needs JavaScript.